User: anonymous   Login
Location: Unspecified
(0.0000°N, 0.0000°E)
Time: 23:29:35
(UTC+02:00)
Language:

ITAMSAT 1 - Orbit

View from above orbital plane
View from above orbital plane
View from above satellite
View from above satellite

Ground track
Ground track

The orbit data is extracted from the following two-line orbital elements,

1 22826U 93061D   15183.08128215  .00000020  00000-0  24970-4 0  9992
2 22826 098.7036 133.3605 0007767 255.6953 104.3367 14.30206721135210
Epoch (UTC): 02 July 2015 01:57:02
Eccentricity: 0.0007767
inclination: 98.7036°
perigee height: 785 km
apogee height: 796 km
right ascension of ascending node: 133.3605°
argument of perigee: 255.6953°
revolutions per day: 14.30206721
mean anomaly at epoch: 104.3367°
orbit number at epoch: 13521

The dashed part of the orbit path shows where the satellite is in the earth's shadow,  

DLR